[[{"header":{"parameterUnit":"m.s-1","parameterCategory":1,"la1":30.2991,"la2":30.254,"lo1":-89.0895,"lo2":-89.0444,"dy":0.0017,"dx":0.0017,"nx":28,"ny":28,"refTime":"2023-10-07T09:00:00:Z","depth":0,"parameterNumber":2,"parameterNumberName":"U-component_of_WINDS"},"data":[0,0,0,0,0,0,0,0,0,0,0,0,0,0,0,0,0,0,0,0,0,0,0,0,0,0,0,0,0,0,0,0,0,0,0,0,0,0,0,0,0,0,0,0,0,0,0,0,0,0,0,0,0,0,0,0,0,0,1.0151,1.0151,0,1.0104,1.0103,1.0102,1.0046,1.0045,1.0045,1.0044,0.9995,0.9995,0.9994,0,0,0,0,0,0,0,0,0,0,0,0,0,1.0195,1.0195,1.0151,1.0151,1.015,1.0104,1.0103,1.0102,1.0046,1.0045,1.0044,1.0043,0.9996,0.9995,0.9994,0,0,0,0,0,0,0,0,0,0,0,0,0,1.0165,1.0195,1.0151,1.0117,1.0113,1.0104,1.0103,1.0102,1.0047,1.0045,1.0044,1.0043,0.9996,0.9995,0.9994,1.0016,0,0,0.9992,0.9992,0,0,0,0,0,0,0,0,1.0167,1.0163,1.0122,1.0119,1.0115,1.008,1.0101,1.0073,1.0047,1.0072,1.0044,1.0042,1.0024,1.0021,1.0015,1.0013,1.0011,0.9992,0.9992,0.9991,0.9991,0,0,0,0,0,0,0,1.0169,1.0165,1.0132,1.0122,1.0117,1.0104,1.0098,1.0095,1.0056,1.007,1.0065,1.0061,1.0022,1.0016,1.0014,1.001,0.9992,0.9991,0.9991,0.9991,1.0024,1.0026,0,0,0,0,0,0,1.0176,1.0167,1.0134,1.0131,1.0138,1.0104,1.0098,1.0092,1.0056,1.0049,1.0062,1.0058,1.0018,1.0015,1.0012,1.0034,0.9991,0.9991,0.999,1.0023,1.0025,1.0026,0,0,0,0,0,0,1.0177,1.0174,1.0136,1.0148,1.0142,1.0105,1.0099,1.0092,1.0086,1.005,1.0043,1.0062,1.0017,1.0013,1.0015,1.0032,0.999,0.999,1.0021,1.0024,1.0025,1.008,0,0,0,0,0,0,1.0179,1.0174,1.0182,1.0148,1.0142,1.014,1.01,1.0092,1.0085,1.0079,1.0049,1.0042,1.0015,1.0017,1.0014,1.003,0.9989,1.002,1.0022,1.0025,1.0076,1.0083,1.0089,0,0,0,0,0,1.018,1.0199,1.0182,1.0179,1.015,1.0141,1.0137,1.0105,1.0086,1.0093,1.0071,1.0043,1.0031,1.0017,1.0014,1.003,1.0019,1.0022,1.0025,1.0073,1.0082,1.0089,0,0,0,0,0,0,1.0235,1.0194,1.0175,1.0183,1.0166,1.0131,1.0139,1.0116,1.0104,1.0099,1.0061,1.0054,1.0062,1.0046,1.0032,1.0049,1.0021,1.0023,1.0059,1.0067,1.0073,1.0076,0.9988,0,0,0,0,0,1.0248,1.0243,1.0208,1.0219,1.0211,1.0177,1.0172,1.0149,1.013,1.0122,1.01,1.0082,1.0074,1.007,1.006,1.0074,1.0067,1.0084,1.009,1.0096,1.0098,1.0105,1.0112,1.0036,1.0036,1.0036,0,0,1.0274,1.0251,1.0251,1.0229,1.0213,1.021,1.0171,1.0169,1.0167,1.0122,1.0123,1.0106,1.0084,1.0092,1.0095,1.0079,1.0118,1.01,1.0104,1.0104,1.0109,1.0116,1.0122,1.0038,1.0038,1.0037,0,0,1.0321,1.0303,1.031,1.0295,1.0272,1.0249,1.0251,1.022,1.0207,1.0208,1.0174,1.0171,1.0158,1.0144,1.0135,1.0178,1.0153,1.0176,1.021,1.0217,1.0223,1.0228,1.0243,1.0249,1.0179,1.0179,1.0179,0,1.0357,1.035,1.0317,1.0317,1.0309,1.0269,1.0276,1.0263,1.0238,1.0233,1.0217,1.02,1.0182,1.0187,1.0198,1.0192,1.0193,1.0179,1.0225,1.023,1.0234,1.0248,1.0254,1.0182,1.0182,1.0181,1.0181,0,1.0396,1.0392,1.0401,1.0377,1.037,1.0374,1.0341,1.0338,1.0317,1.0296,1.0298,1.0275,1.0261,1.0261,1.0239,1.0263,1.0254,1.0232,1.0202,1.0245,1.0257,1.0263,1.0186,1.0185,1.0184,1.0184,0,0,1.0474,1.0433,1.0437,1.0426,1.0398,1.0394,1.0397,1.0383,1.0381,1.0365,1.0367,1.0357,1.0337,1.0327,1.0304,1.031,1.0346,1.0287,1.0286,1.0299,1.0371,1.0387,1.0394,1.033,1.0331,1.0331,1.0372,0,1.0515,1.0516,1.0487,1.0497,1.0493,1.0456,1.0458,1.0441,1.0423,1.0417,1.0397,1.0391,1.0364,1.0358,1.0363,1.0341,1.036,1.0338,1.033,1.0331,1.0336,1.04,1.0417,1.0457,1.0377,1.0378,1.0378,0,1.0563,1.055,1.056,1.0532,1.0529,1.0532,1.0517,1.0512,1.0493,1.0479,1.0469,1.0443,1.0444,1.0417,1.0418,1.0403,1.0399,1.0388,1.0389,1.0386,1.0357,1.0399,1.0469,1.0475,1.0386,1.0385,1.0385,0,1.0619,1.0604,1.0608,1.06,1.0568,1.057,1.0557,1.0536,1.053,1.0518,1.0513,1.0502,1.0495,1.0486,1.0458,1.0441,1.0463,1.0433,1.0451,1.0452,1.0457,1.0457,1.0527,1.0455,1.0455,1.0455,1.0455,0,1.0667,1.0675,1.0633,1.0635,1.0642,1.0609,1.0617,1.06,1.0583,1.0581,1.0549,1.0548,1.0512,1.0507,1.0486,1.049,1.0487,1.0476,1.047,1.0479,1.048,1.0475,1.0471,1.0457,1.0456,1.0456,1.0456,0,1.0731,1.0703,1.0705,1.0674,1.0667,1.0674,1.0647,1.0649,1.0629,1.0627,1.0625,1.0594,1.0587,1.0559,1.0545,1.053,1.0542,1.0531,1.0549,1.0545,1.0564,1.0563,1.0632,1.064,1.0565,1.0565,1.0566,0,1.0763,1.0768,1.0738,1.0735,1.0723,1.0719,1.0712,1.068,1.0675,1.0654,1.0658,1.0649,1.064,1.0631,1.0607,1.0597,1.0584,1.061,1.0583,1.0591,1.0585,1.0584,1.0585,1.0615,1.0616,1.0617,1.0618,0,1.0824,1.081,1.0802,1.079,1.0784,1.0772,1.0759,1.0759,1.0723,1.0719,1.0712,1.0705,1.0691,1.0683,1.0669,1.0655,1.0631,1.0627,1.063,1.0639,1.0649,1.0643,1.0564,1.0625,1.0624,1.0624,1.0623,1.0623,1.0873,1.0875,1.0855,1.0847,1.0834,1.0823,1.0823,1.0803,1.0796,1.0783,1.0765,1.076,1.0741,1.072,1.0709,1.0705,1.0691,1.0696,1.0698,1.0699,1.0704,1.065,1.0702,1.0702,1.0702,1.0702,1.0702,0,1.0931,1.0917,1.091,1.0893,1.0888,1.0865,1.085,1.0847,1.0843,1.0828,1.082,1.0812,1.0804,1.078,1.0769,1.0771,1.076,1.0769,1.0768,1.0766,1.0717,1.0714,1.0779,1.0779,1.0779,1.0779,1.0779,1.0779,1.0961,1.0965,1.0949,1.0946,1.0931,1.0926,1.092,1.0909,1.0897,1.089,1.0883,1.0867,1.0849,1.0837,1.0829,1.0822,1.0819,1.0833,1.0822,1.0777,1.0769,1.0762,1.076,1.0833,1.0833,1.0872,1.0872,1.0872]},{"header":{"parameterUnit":"m.s-1","parameterCategory":1,"la1":30.2991,"la2":30.254,"lo1":-89.0895,"lo2":-89.0444,"dy":0.0017,"dx":0.0017,"nx":28,"ny":28,"refTime":"2023-10-07T09:00:00:Z","depth":0,"parameterNumber":3,"parameterNumberName":"V-component_of_WINDS"},"data":[0,0,0,0,0,0,0,0,0,0,0,0,0,0,0,0,0,0,0,0,0,0,0,0,0,0,0,0,0,0,0,0,0,0,0,0,0,0,0,0,0,0,0,0,0,0,0,0,0,0,0,0,0,0,0,0,0,0,-1.456,-1.4561,0,-1.468,-1.4682,-1.4683,-1.476,-1.476,-1.4761,-1.4761,-1.4881,-1.4884,-1.4886,0,0,0,0,0,0,0,0,0,0,0,0,0,-1.4392,-1.4395,-1.456,-1.4561,-1.4563,-1.468,-1.4682,-1.4683,-1.476,-1.476,-1.4761,-1.4761,-1.488,-1.4883,-1.4887,0,0,0,0,0,0,0,0,0,0,0,0,0,-1.4484,-1.4396,-1.4559,-1.4615,-1.4621,-1.468,-1.4682,-1.4684,-1.4759,-1.476,-1.4761,-1.4761,-1.4879,-1.4883,-1.4887,-1.4899,0,0,-1.49,-1.4902,0,0,0,0,0,0,0,0,-1.4479,-1.449,-1.4605,-1.4611,-1.4618,-1.4706,-1.4667,-1.4756,-1.4759,-1.4707,-1.4761,-1.4762,-1.4822,-1.4831,-1.4852,-1.4905,-1.491,-1.49,-1.4903,-1.4905,-1.4906,0,0,0,0,0,0,0,-1.4472,-1.4485,-1.4607,-1.4607,-1.4615,-1.4633,-1.4647,-1.4684,-1.4759,-1.4711,-1.4717,-1.4731,-1.4826,-1.4848,-1.4855,-1.4912,-1.49,-1.4904,-1.4906,-1.4908,-1.4981,-1.498,0,0,0,0,0,0,-1.4458,-1.448,-1.4603,-1.4611,-1.4549,-1.4635,-1.4651,-1.4677,-1.4759,-1.4772,-1.473,-1.4734,-1.484,-1.485,-1.486,-1.4879,-1.4905,-1.4908,-1.4911,-1.4981,-1.4981,-1.498,0,0,0,0,0,0,-1.4454,-1.4468,-1.4599,-1.4547,-1.4565,-1.4637,-1.4666,-1.4679,-1.4701,-1.4773,-1.4786,-1.4739,-1.4841,-1.4854,-1.4889,-1.4885,-1.491,-1.4914,-1.4982,-1.4981,-1.498,-1.4918,0,0,0,0,0,0,-1.4449,-1.4466,-1.4472,-1.4547,-1.4567,-1.4626,-1.4666,-1.4681,-1.4708,-1.4715,-1.4785,-1.4797,-1.4843,-1.4882,-1.4893,-1.4891,-1.4917,-1.4983,-1.4981,-1.498,-1.4921,-1.4915,-1.491,0,0,0,0,0,-1.4442,-1.4449,-1.4472,-1.4486,-1.4576,-1.4626,-1.4638,-1.4691,-1.4708,-1.4714,-1.476,-1.4795,-1.4883,-1.4885,-1.4898,-1.4897,-1.4983,-1.4982,-1.4981,-1.4923,-1.4916,-1.491,0,0,0,0,0,0,-1.437,-1.4459,-1.4486,-1.4517,-1.4563,-1.4639,-1.4648,-1.4682,-1.4724,-1.4728,-1.4791,-1.4807,-1.4835,-1.487,-1.487,-1.4913,-1.4937,-1.4938,-1.4889,-1.4883,-1.4878,-1.4869,-1.4921,0,0,0,0,0,-1.4358,-1.4392,-1.4468,-1.4488,-1.451,-1.4575,-1.4598,-1.4636,-1.4686,-1.4706,-1.4754,-1.4801,-1.484,-1.4863,-1.4903,-1.4926,-1.4943,-1.4932,-1.4926,-1.4922,-1.4922,-1.4937,-1.4933,-1.4976,-1.4976,-1.4976,0,0,-1.4333,-1.4386,-1.4403,-1.4475,-1.4515,-1.4548,-1.4591,-1.4623,-1.4648,-1.471,-1.4747,-1.4784,-1.484,-1.487,-1.4885,-1.4899,-1.4914,-1.492,-1.4916,-1.4919,-1.4936,-1.4931,-1.4928,-1.4975,-1.4975,-1.4975,0,0,-1.4304,-1.4348,-1.437,-1.441,-1.4471,-1.4514,-1.4519,-1.459,-1.4617,-1.4655,-1.4703,-1.4733,-1.4797,-1.4836,-1.4864,-1.485,-1.4884,-1.4861,-1.4833,-1.4848,-1.4844,-1.4842,-1.4837,-1.4834,-1.4861,-1.4861,-1.4861,0,-1.4265,-1.4318,-1.4376,-1.4406,-1.4436,-1.4495,-1.4517,-1.4553,-1.4623,-1.4642,-1.4657,-1.474,-1.4782,-1.4822,-1.4818,-1.4839,-1.4846,-1.4853,-1.484,-1.4838,-1.4837,-1.4833,-1.4831,-1.4858,-1.4858,-1.4858,-1.4859,0,-1.4266,-1.4302,-1.4312,-1.4379,-1.441,-1.4436,-1.4498,-1.4522,-1.4557,-1.4598,-1.4636,-1.4689,-1.474,-1.4752,-1.4786,-1.4796,-1.4803,-1.4828,-1.4854,-1.4828,-1.4826,-1.4825,-1.4853,-1.4854,-1.4855,-1.4856,0,0,-1.4195,-1.4295,-1.4298,-1.4329,-1.4402,-1.443,-1.4458,-1.451,-1.4529,-1.4575,-1.4601,-1.4655,-1.4679,-1.471,-1.4749,-1.4761,-1.4748,-1.4786,-1.4788,-1.4776,-1.4763,-1.4743,-1.474,-1.4771,-1.477,-1.477,-1.4758,0,-1.4176,-1.4231,-1.4285,-1.4321,-1.4354,-1.4411,-1.4436,-1.4482,-1.4522,-1.4555,-1.4599,-1.4636,-1.4665,-1.4685,-1.47,-1.4746,-1.4745,-1.4748,-1.4794,-1.4795,-1.4778,-1.4739,-1.4718,-1.4704,-1.4757,-1.4757,-1.4757,0,-1.4162,-1.4207,-1.4246,-1.4316,-1.4332,-1.4353,-1.4405,-1.4437,-1.4491,-1.4519,-1.4554,-1.4595,-1.4628,-1.465,-1.4696,-1.4696,-1.4718,-1.4744,-1.4744,-1.475,-1.4774,-1.4743,-1.47,-1.4698,-1.4756,-1.4756,-1.4756,0,-1.4106,-1.4176,-1.4209,-1.4234,-1.4316,-1.433,-1.4365,-1.4419,-1.4447,-1.4492,-1.451,-1.4558,-1.4584,-1.4619,-1.4672,-1.4684,-1.4712,-1.4739,-1.4735,-1.4734,-1.4738,-1.4737,-1.4698,-1.4753,-1.4753,-1.4753,-1.4753,0,-1.4079,-1.4101,-1.4185,-1.4205,-1.4231,-1.4292,-1.4316,-1.4355,-1.4404,-1.4432,-1.4484,-1.4509,-1.4578,-1.4611,-1.4652,-1.4683,-1.4695,-1.4718,-1.4728,-1.4713,-1.471,-1.4728,-1.473,-1.4752,-1.4752,-1.4752,-1.4753,0,-1.402,-1.4078,-1.4117,-1.4192,-1.4211,-1.4227,-1.4291,-1.4312,-1.4355,-1.439,-1.4402,-1.4469,-1.4511,-1.4567,-1.4627,-1.4655,-1.468,-1.4697,-1.4662,-1.4668,-1.4662,-1.4662,-1.4632,-1.4632,-1.4687,-1.4686,-1.4686,0,-1.4,-1.4018,-1.4095,-1.4118,-1.4151,-1.4188,-1.4217,-1.4278,-1.4305,-1.4369,-1.4382,-1.4428,-1.4469,-1.4533,-1.4587,-1.4632,-1.4651,-1.4637,-1.4658,-1.4642,-1.465,-1.4648,-1.4651,-1.4632,-1.4631,-1.463,-1.463,0,-1.3956,-1.3984,-1.4024,-1.4074,-1.4107,-1.4149,-1.4194,-1.4209,-1.428,-1.4308,-1.4352,-1.4384,-1.4445,-1.449,-1.4543,-1.4578,-1.4615,-1.4623,-1.4625,-1.4609,-1.4588,-1.4599,-1.4648,-1.4623,-1.4624,-1.4624,-1.4625,-1.4625,-1.3916,-1.3935,-1.3992,-1.4035,-1.4075,-1.4116,-1.414,-1.4186,-1.4224,-1.428,-1.4313,-1.4356,-1.441,-1.4485,-1.4519,-1.4553,-1.4567,-1.457,-1.457,-1.457,-1.4565,-1.4583,-1.4563,-1.4563,-1.4563,-1.4563,-1.4564,0,-1.3875,-1.3915,-1.3954,-1.4015,-1.4049,-1.4082,-1.4133,-1.4159,-1.4196,-1.4244,-1.4283,-1.4334,-1.4378,-1.4436,-1.4484,-1.45,-1.4519,-1.4511,-1.451,-1.4518,-1.4549,-1.4543,-1.4495,-1.4495,-1.4495,-1.4495,-1.4495,-1.4495,-1.3858,-1.3892,-1.3927,-1.3981,-1.4021,-1.4064,-1.409,-1.4127,-1.4166,-1.4221,-1.4258,-1.4296,-1.4348,-1.44,-1.4442,-1.4458,-1.4473,-1.446,-1.4481,-1.4509,-1.4515,-1.4521,-1.4515,-1.4463,-1.4463,-1.4447,-1.4447,-1.4447]}]]